FW8892 Weather Reports


Display with metric or nautical units.
time (UTC)temp
F
wind
direction
speed
MPH
gust
MPH
rain 1hr
in
rain 24hr
in
rain mn
in
humidity
%
barometer
mb
20260901005030 82 0 0.0 0.0 0.00 0.00 0.00 76 1017.6
20260901004551 82 0 0.0 0.0 0.00 0.00 0.00 75 1017.5
20260901004031 83 0 0.0 0.0 0.00 0.00 0.00 74 1017.5
20260901003528 84 0 0.0 0.0 0.00 0.00 0.00 74 1017.5
20260901003057 84 0 0.0 0.0 0.00 0.00 0.00 73 1017.7
20260901002529 85 0 0.0 0.0 0.00 0.00 0.00 72 1017.7
20260901002033 85 0 0.0 0.0 0.00 0.00 0.00 72 1017.6
20260901001603 86 0 0.0 1.0 0.00 0.00 0.00 71 1017.7
20260901001028 86 0 0.0 2.0 0.00 0.00 0.00 70 1017.6
20260901000528 87 0 0.0 2.0 0.00 0.00 0.00 68 1017.7
20260901000103 87 0 0.0 1.0 0.00 0.00 0.00 67 1017.7
20260831235530 88 0 0.0 1.0 0.00 0.00 0.00 66 1017.7
20260831235029 88 0 0.0 2.0 0.00 0.00 0.00 63 1017.8
20260831234553 89 187 0.0 2.0 0.00 0.00 0.00 60 1017.8
20260831234029 89 187 0.0 2.0 0.00 0.00 0.00 60 1017.8
20260831233531 89 174 0.0 4.0 0.00 0.00 0.00 59 1017.9
20260831233046 89 0 0.0 4.0 0.00 0.00 0.00 59 1017.9
20260831232529 90 169 0.0 2.0 0.00 0.00 0.00 57 1017.9
20260831232028 90 0 0.0 3.0 0.00 0.00 0.00 59 1017.9
20260831231543 90 0 0.0 3.0 0.00 0.00 0.00 58 1018.0
20260831231030 90 194 0.0 2.0 0.00 0.00 0.00 57 1018.0
20260831230528 90 0 0.0 3.0 0.00 0.00 0.00 56 1018.0
20260831230123 91 0 1.0 4.0 0.00 0.00 0.00 57 1018.0
20260831225531 91 189 1.0 4.0 0.00 0.00 0.00 57 1018.1
20260831225034 91 299 0.0 3.0 0.00 0.00 0.00 57 1018.0
20260831224550 91 221 1.0 3.0 0.00 0.00 0.00 57 1018.1
20260831224028 91 234 0.0 2.0 0.00 0.00 0.00 57 1018.2
20260831223529 91 0 0.0 2.0 0.00 0.00 0.00 57 1018.1
20260831223050 92 273 0.0 2.0 0.00 0.00 0.00 56 1018.2
20260831222529 92 252 0.0 3.0 0.00 0.00 0.00 55 1018.2
20260831222028 92 255 1.0 3.0 0.00 0.00 0.00 56 1018.2
20260831221627 92 229 1.0 3.0 0.00 0.00 0.00 56 1018.2
20260831221030 93 202 1.0 4.0 0.00 0.00 0.00 54 1018.2
20260831220528 93 0 1.0 4.0 0.00 0.00 0.00 53 1018.2
20260831220054 93 222 1.0 4.0 0.00 0.00 0.00 53 1018.2
20260831215529 93 0 0.0 4.0 0.00 0.00 0.00 55 1018.3
20260831215030 93 223 1.0 3.0 0.00 0.00 0.00 53 1018.3
20260831214550 94 0 0.0 4.0 0.00 0.00 0.00 53 1018.3
20260831214028 94 0 0.0 4.0 0.00 0.00 0.00 53 1018.2
20260831213529 94 0 1.0 4.0 0.00 0.00 0.00 52 1018.3
20260831213057 94 219 1.0 3.0 0.00 0.00 0.00 52 1018.4
20260831212528 95 215 1.0 4.0 0.00 0.00 0.00 52 1018.3
20260831212031 95 294 1.0 4.0 0.00 0.00 0.00 51 1018.4
20260831211603 95 329 1.0 2.0 0.00 0.00 0.00 50 1018.4
20260831211029 95 279 0.0 2.0 0.00 0.00 0.00 53 1018.5
20260831210531 95 0 1.0 4.0 0.00 0.00 0.00 51 1018.5
20260831210048 94 144 1.0 4.0 0.00 0.00 0.00 52 1018.6
20260831205529 94 213 1.0 4.0 0.00 0.00 0.00 55 1018.7
20260831205029 93 188 2.0 4.0 0.00 0.00 0.00 56 1018.7
20260831204559 93 75 0.0 4.0 0.00 0.00 0.00 53 1018.6
20260831204030 93 355 1.0 4.0 0.00 0.00 0.00 57 1018.7
20260831203528 92 311 0.0 2.0 0.00 0.00 0.00 56 1018.7
20260831203057 93 0 0.0 2.0 0.00 0.00 0.00 57 1018.7
20260831202534 93 250 0.0 1.0 0.00 0.00 0.00 57 1018.6
20260831202029 93 244 0.0 1.0 0.00 0.00 0.00 57 1018.7
20260831201556 94 277 0.0 1.0 0.00 0.00 0.00 54 1018.7
20260831201028 94 123 0.0 4.0 0.00 0.00 0.00 55 1018.8
20260831200530 94 0 1.0 4.0 0.00 0.00 0.00 56 1019.1
20260831200048 94 68 1.0 6.0 0.00 0.00 0.00 57 1019.1
20260831195529 93 269 2.0 6.0 0.00 0.00 0.00 56 1019.2
20260831195029 93 44 3.0 7.0 0.00 0.00 0.00 57 1019.4
20260831194658 93 63 3.0 7.0 0.00 0.00 0.00 57 1019.4
20260831194034 93 53 2.0 4.0 0.00 0.00 0.00 59 1019.2
20260831193529 94 88 1.0 4.0 0.00 0.00 0.00 55 1019.3
20260831193057 94 190 1.0 5.0 0.00 0.00 0.00 54 1019.4
20260831192528 95 245 2.0 5.0 0.00 0.00 0.00 55 1019.5
20260831192032 95 126 2.0 6.0 0.00 0.00 0.00 57 1019.5
20260831191553 95 267 3.0 6.0 0.00 0.00 0.00 55 1019.5
20260831191027 95 0 1.0 8.0 0.00 0.00 0.00 54 1019.6
20260831190529 95 229 2.0 8.0 0.00 0.00 0.00 56 1019.5
20260831190053 94 290 2.0 8.0 0.00 0.00 0.00 58 1019.5
20260831185528 93 269 2.0 6.0 0.00 0.00 0.00 62 1019.6
20260831185030 93 0 1.0 4.0 0.00 0.00 0.00 61 1019.6
20260831184547 94 298 1.0 7.0 0.00 0.00 0.00 57 1019.7
20260831184029 94 240 1.0 9.0 0.00 0.00 0.00 60 1019.8
20260831183530 94 216 1.0 9.0 0.00 0.00 0.00 58 1019.8
20260831183056 94 243 4.0 9.0 0.00 0.00 0.00 59 1019.8
20260831182529 93 153 2.0 8.0 0.00 0.00 0.00 59 1020.0
20260831182030 93 57 4.0 8.0 0.00 0.00 0.00 59 1019.9
20260831181557 93 202 2.0 7.0 0.00 0.00 0.00 59 1020.0
20260831181029 93 193 3.0 10.0 0.00 0.00 0.00 58 1020.1
20260831180532 93 213 3.0 10.0 0.00 0.00 0.00 59 1020.2
20260831180100 94 149 4.0 10.0 0.00 0.00 0.00 56 1020.2
20260831175530 94 237 3.0 9.0 0.00 0.00 0.00 57 1020.3
20260831175028 95 133 3.0 9.0 0.00 0.00 0.00 56 1020.3
20260831174556 95 206 2.0 9.0 0.00 0.00 0.00 58 1020.4
20260831174032 95 200 2.0 8.0 0.00 0.00 0.00 59 1020.3
20260831173529 94 159 2.0 8.0 0.00 0.00 0.00 60 1020.5
20260831173046 94 183 3.0 8.0 0.00 0.00 0.00 58 1020.5
20260831172529 94 178 3.0 9.0 0.00 0.00 0.00 59 1020.5
20260831172029 94 184 3.0 9.0 0.00 0.00 0.00 57 1020.5
20260831171557 94 196 3.0 9.0 0.00 0.00 0.00 60 1020.6
20260831171028 93 289 3.0 7.0 0.00 0.00 0.00 61 1020.7
20260831170528 93 151 1.0 8.0 0.00 0.00 0.00 62 1020.7
20260831170126 93 124 3.0 8.0 0.00 0.00 0.00 59 1020.8
20260831165529 93 223 2.0 7.0 0.00 0.00 0.00 63 1020.8
20260831165029 93 263 2.0 8.0 0.00 0.00 0.00 61 1020.9
20260831164601 93 250 1.0 8.0 0.00 0.00 0.00 61 1020.8
20260831164029 93 254 2.0 6.0 0.00 0.00 0.00 62 1020.9
20260831163530 92 198 1.0 6.0 0.00 0.00 0.00 62 1020.9
20260831163056 92 272 2.0 7.0 0.00 0.00 0.00 59 1021.1
20260831162531 92 293 3.0 7.0 0.00 0.00 0.00 60 1021.0
20260831162029 92 304 2.0 7.0 0.00 0.00 0.00 62 1021.0
20260831161611 93 211 3.0 11.0 0.00 0.00 0.00 61 1021.0
20260831161033 92 261 4.0 11.0 0.00 0.00 0.00 61 1020.9
20260831160528 93 186 2.0 9.0 0.00 0.00 0.00 63 1020.9
20260831160050 93 261 2.0 9.0 0.00 0.00 0.00 63 1020.9
20260831155530 92 245 3.0 7.0 0.00 0.00 0.00 62 1020.9
20260831155031 92 310 3.0 7.0 0.00 0.00 0.00 64 1020.8
20260831154620 92 163 3.0 8.0 0.00 0.00 0.00 65 1020.8
20260831154032 92 0 1.0 12.0 0.00 0.00 0.00 64 1020.9
20260831153528 91 192 4.0 12.0 0.00 0.00 0.00 64 1020.9
20260831153057 91 187 3.0 9.0 0.00 0.00 0.00 65 1021.0
20260831152527 91 170 3.0 9.0 0.00 0.00 0.00 65 1020.9
20260831152030 91 190 1.0 7.0 0.00 0.00 0.00 66 1021.0
20260831151552 91 181 3.0 7.0 0.00 0.00 0.00 64 1020.9
20260831151030 91 212 2.0 7.0 0.00 0.00 0.00 64 1021.0
20260831150529 91 272 3.0 8.0 0.00 0.00 0.00 65 1020.9
20260831150059 91 241 3.0 8.0 0.00 0.00 0.00 66 1020.9
20260831145529 90 265 2.0 6.0 0.00 0.00 0.00 67 1020.9
20260831145028 90 299 2.0 7.0 0.00 0.00 0.00 68 1020.7
20260831144559 89 178 3.0 7.0 0.00 0.00 0.00 67 1020.7
20260831144027 89 219 3.0 7.0 0.00 0.00 0.00 67 1020.7
20260831143531 89 184 2.0 7.0 0.00 0.00 0.00 69 1020.6
20260831143052 89 241 3.0 7.0 0.00 0.00 0.00 68 1020.6
20260831142530 88 279 3.0 7.0 0.00 0.00 0.00 70 1020.6
20260831142030 88 149 2.0 6.0 0.00 0.00 0.00 69 1020.5
20260831141558 87 189 2.0 8.0 0.00 0.00 0.00 71 1020.6
20260831141028 87 164 2.0 8.0 0.00 0.00 0.00 72 1020.5
20260831140532 86 183 2.0 6.0 0.00 0.00 0.00 73 1020.5
20260831140055 86 253 2.0 6.0 0.00 0.00 0.00 73 1020.5
20260831135529 86 188 3.0 6.0 0.00 0.00 0.00 73 1020.5
20260831135031 85 168 1.0 5.0 0.00 0.00 0.00 75 1020.4
20260831134550 84 191 2.0 5.0 0.00 0.00 0.00 76 1020.5
20260831134029 84 131 1.0 9.0 0.00 0.00 0.00 78 1020.5
20260831133530 83 148 4.0 9.0 0.00 0.00 0.00 77 1020.4
20260831133100 83 168 2.0 7.0 0.00 0.00 0.00 79 1020.5
20260831132528 83 165 3.0 6.0 0.00 0.00 0.00 78 1020.5
20260831132028 82 209 1.0 6.0 0.00 0.00 0.00 81 1020.5
20260831131556 81 191 2.0 7.0 0.00 0.00 0.00 82 1020.4
20260831131028 80 144 2.0 7.0 0.00 0.00 0.00 83 1020.4
20260831130528 79 158 1.0 6.0 0.00 0.00 0.00 85 1020.3
20260831130050 79 204 2.0 6.0 0.00 0.00 0.00 86 1020.3
20260831125532 78 145 0.0 4.0 0.00 0.00 0.00 88 1020.3
20260831125032 77 173 1.0 4.0 0.00 0.00 0.00 89 1020.3
20260831124548 76 188 0.0 3.0 0.00 0.00 0.00 92 1020.1
20260831124031 75 138 0.0 3.0 0.00 0.00 0.00 94 1020.2
20260831123532 74 0 1.0 3.0 0.00 0.00 0.00 95 1020.2
20260831123057 73 150 0.0 2.0 0.00 0.00 0.00 97 1020.1
20260831122532 73 0 0.0 0.0 0.00 0.00 0.00 99 1020.1
20260831122029 73 0 0.0 0.0 0.00 0.00 0.00 99 1020.0
20260831121550 72 0 0.0 0.0 0.00 0.00 0.00 99 1020.0
20260831121029 71 0 0.0 0.0 0.00 0.00 0.00 99 1020.0
20260831120529 70 0 0.0 0.0 0.00 0.00 0.00 99 1020.0
20260831120054 69 0 0.0 0.0 0.00 0.00 0.00 98 1020.0
20260831115530 69 0 0.0 0.0 0.00 0.00 0.00 98 1020.0
20260831115030 69 0 0.0 0.0 0.00 0.00 0.00 98 1019.9
20260831114548 69 0 0.0 0.0 0.00 0.00 0.00 98 1019.9
20260831114031 69 0 0.0 0.0 0.00 0.00 0.00 97 1019.8
20260831113530 69 0 0.0 0.0 0.00 0.00 0.00 97 1019.8
20260831113054 69 0 0.0 0.0 0.00 0.00 0.00 97 1019.8
20260831112530 68 0 0.0 0.0 0.00 0.00 0.00 97 1019.7
20260831112029 69 0 0.0 0.0 0.00 0.00 0.00 97 1019.6
20260831111553 69 0 0.0 0.0 0.00 0.00 0.00 97 1019.8
20260831111030 69 0 0.0 0.0 0.00 0.00 0.00 97 1019.8
20260831110529 69 0 0.0 0.0 0.00 0.00 0.00 97 1019.7
20260831110049 69 0 0.0 0.0 0.00 0.00 0.00 98 1019.6
20260831105530 69 0 0.0 0.0 0.00 0.00 0.00 98 1019.5
20260831105030 69 0 0.0 0.0 0.00 0.00 0.00 97 1019.6
20260831104559 68 0 0.0 0.0 0.00 0.00 0.00 97 1019.6
20260831104030 69 0 0.0 0.0 0.00 0.00 0.00 97 1019.5
20260831103529 69 0 0.0 0.0 0.00 0.00 0.00 97 1019.5
20260831103108 68 0 0.0 0.0 0.00 0.00 0.00 97 1019.4
20260831102529 68 0 0.0 0.0 0.00 0.00 0.00 97 1019.4
20260831102029 68 0 0.0 0.0 0.00 0.00 0.00 97 1019.5
20260831101557 68 0 0.0 0.0 0.00 0.00 0.00 97 1019.4
20260831101030 68 0 0.0 0.0 0.00 0.00 0.00 97 1019.4
20260831100528 68 0 0.0 0.0 0.00 0.00 0.00 97 1019.2
20260831100100 69 0 0.0 0.0 0.00 0.00 0.00 97 1019.3
20260831095531 69 0 0.0 0.0 0.00 0.00 0.00 97 1019.0
20260831095029 69 0 0.0 0.0 0.00 0.00 0.00 97 1019.1
20260831094556 69 0 0.0 0.0 0.00 0.00 0.00 97 1019.0
20260831094030 69 0 0.0 0.0 0.00 0.00 0.00 97 1018.9
20260831093528 69 0 0.0 0.0 0.00 0.00 0.00 97 1018.9
20260831093057 69 0 0.0 0.0 0.00 0.00 0.00 97 1018.9
20260831092527 69 0 0.0 0.0 0.00 0.00 0.00 97 1018.9
20260831092029 69 0 0.0 0.0 0.00 0.00 0.00 97 1018.9
20260831091613 69 0 0.0 0.0 0.00 0.00 0.00 96 1018.9
20260831091030 69 0 0.0 0.0 0.00 0.00 0.00 96 1018.8
20260831090530 69 0 0.0 0.0 0.00 0.00 0.00 96 1018.8
20260831090100 69 0 0.0 0.0 0.00 0.00 0.00 96 1018.7
20260831085529 69 0 0.0 0.0 0.00 0.00 0.00 96 1018.7
20260831085031 69 0 0.0 0.0 0.00 0.00 0.00 96 1018.7
20260831084559 69 0 0.0 0.0 0.00 0.00 0.00 96 1018.8
20260831084031 69 0 0.0 0.0 0.00 0.00 0.00 96 1018.7
20260831083530 69 0 0.0 0.0 0.00 0.00 0.00 96 1018.7
20260831083051 70 0 0.0 0.0 0.00 0.00 0.00 96 1018.6
20260831082529 70 0 0.0 0.0 0.00 0.00 0.00 96 1018.5
20260831082029 70 0 0.0 0.0 0.00 0.00 0.00 96 1018.5
20260831081550 70 0 0.0 0.0 0.00 0.00 0.00 96 1018.4
20260831081031 70 0 0.0 0.0 0.00 0.00 0.00 96 1018.3
20260831080530 70 0 0.0 0.0 0.00 0.00 0.00 96 1018.4
20260831075530 70 0 0.0 0.0 0.00 0.00 0.00 96 1018.5
20260831075029 70 0 0.0 0.0 0.00 0.00 0.00 96 1018.4
20260831074559 70 0 0.0 0.0 0.00 0.00 0.00 96 1018.5
20260831074030 70 0 0.0 0.0 0.00 0.00 0.00 96 1018.4
20260831073530 70 0 0.0 0.0 0.00 0.00 0.00 95 1018.4
20260831073049 70 0 0.0 0.0 0.00 0.00 0.00 95 1018.5
20260831072531 70 0 0.0 0.0 0.00 0.00 0.00 95 1018.5
20260831072032 70 0 0.0 0.0 0.00 0.00 0.00 95 1018.6
20260831071600 71 0 0.0 0.0 0.00 0.00 0.00 95 1018.6
20260831071029 71 0 0.0 0.0 0.00 0.00 0.00 95 1018.7
20260831070529 71 0 0.0 0.0 0.00 0.00 0.00 95 1018.6
20260831065530 71 0 0.0 0.0 0.00 0.00 0.00 95 1018.7
20260831065028 71 0 0.0 0.0 0.00 0.00 0.00 95 1018.7
20260831064557 71 0 0.0 0.0 0.00 0.00 0.00 95 1018.7
20260831064029 71 0 0.0 0.0 0.00 0.00 0.00 95 1018.7
20260831063530 72 0 0.0 0.0 0.00 0.00 0.00 95 1018.7
20260831063058 72 0 0.0 0.0 0.00 0.00 0.00 95 1018.8
20260831062530 72 0 0.0 0.0 0.00 0.00 0.00 95 1018.9
20260831062029 72 0 0.0 0.0 0.00 0.00 0.00 95 1018.9
20260831061557 72 0 0.0 0.0 0.00 0.00 0.00 95 1018.9
20260831061031 72 0 0.0 0.0 0.00 0.00 0.00 95 1018.9
20260831060529 72 0 0.0 0.0 0.00 0.00 0.00 95 1018.9
20260831060101 72 0 0.0 0.0 0.00 0.00 0.00 95 1018.8
20260831055528 72 0 0.0 0.0 0.00 0.00 0.00 95 1018.8
20260831055030 72 0 0.0 0.0 0.00 0.00 0.00 94 1018.9
20260831054606 72 0 0.0 0.0 0.00 0.00 0.00 94 1018.8
20260831054030 72 0 0.0 0.0 0.00 0.00 0.00 94 1018.7
20260831053530 72 0 0.0 0.0 0.00 0.00 0.00 94 1018.8
20260831053100 73 0 0.0 0.0 0.00 0.00 0.00 94 1018.7
20260831052527 73 0 0.0 0.0 0.00 0.00 0.00 94 1018.8
20260831052029 73 0 0.0 0.0 0.00 0.00 0.00 94 1018.8
20260831051553 73 0 0.0 0.0 0.00 0.00 0.00 94 1018.9
20260831051029 73 0 0.0 0.0 0.00 0.00 0.00 94 1018.9
20260831050527 73 0 0.0 0.0 0.00 0.00 0.00 93 1018.8
20260831050126 73 0 0.0 0.0 0.00 0.00 0.00 94 1018.7
20260831045530 73 0 0.0 0.0 0.00 0.00 0.00 93 1018.7
20260831045030 73 0 0.0 0.0 0.00 0.00 0.00 93 1018.7
20260831044550 73 0 0.0 0.0 0.00 0.00 0.00 93 1018.8
20260831044029 73 0 0.0 0.0 0.00 0.00 0.00 93 1018.8
20260831043528 73 0 0.0 0.0 0.00 0.00 0.00 93 1018.8
20260831043047 73 0 0.0 1.0 0.00 0.00 0.00 93 1018.8
20260831042531 73 0 0.0 1.0 0.00 0.00 0.00 93 1018.8
20260831042027 73 0 0.0 1.0 0.00 0.00 0.00 92 1018.9
20260831041615 74 0 0.0 0.0 0.00 0.00 0.00 92 1018.8
20260831041030 74 0 0.0 0.0 0.00 0.00 0.00 92 1018.8
20260831040530 74 0 0.0 0.0 0.00 0.00 0.00 92 1018.9
20260831040048 74 0 0.0 0.0 0.00 0.00 0.00 91 1018.9
20260831035527 74 0 0.0 0.0 0.00 0.00 0.00 91 1018.9
20260831035029 74 0 0.0 0.0 0.00 0.00 0.00 91 1018.8
20260831034547 74 0 0.0 0.0 0.00 0.00 0.00 91 1018.9
20260831034031 75 0 0.0 0.0 0.00 0.00 0.00 91 1018.9
20260831033528 75 0 0.0 0.0 0.00 0.00 0.00 91 1018.9
20260831033057 75 0 0.0 0.0 0.00 0.00 0.00 91 1018.9
20260831032530 75 0 0.0 0.0 0.00 0.00 0.00 90 1018.9
20260831032028 75 0 0.0 0.0 0.00 0.00 0.00 90 1019.0
20260831031600 75 0 0.0 0.0 0.00 0.00 0.00 91 1018.9
20260831031028 75 0 0.0 0.0 0.00 0.00 0.00 90 1018.9
20260831030533 75 0 0.0 0.0 0.00 0.00 0.00 89 1018.9
20260831030048 75 0 0.0 0.0 0.00 0.00 0.00 89 1018.8
20260831025529 76 0 0.0 0.0 0.00 0.00 0.00 89 1018.9
20260831025029 76 0 0.0 0.0 0.00 0.00 0.00 88 1018.8
20260831024553 76 0 0.0 0.0 0.00 0.00 0.00 89 1018.8
20260831024029 76 0 0.0 0.0 0.00 0.00 0.00 89 1018.7
20260831023529 76 0 0.0 0.0 0.00 0.00 0.00 88 1018.8
20260831023056 76 0 0.0 0.0 0.00 0.00 0.00 88 1018.7
20260831022530 77 0 0.0 0.0 0.00 0.00 0.00 88 1018.8
20260831022028 77 0 0.0 0.0 0.00 0.00 0.00 88 1018.7
20260831021552 77 0 0.0 0.0 0.00 0.00 0.00 87 1018.7
20260831021031 77 0 0.0 0.0 0.00 0.00 0.00 87 1018.6
20260831020531 77 0 0.0 0.0 0.00 0.00 0.00 87 1018.5
20260831020049 77 0 0.0 0.0 0.00 0.00 0.00 86 1018.5
20260831015531 77 0 0.0 0.0 0.00 0.00 0.00 85 1018.5
20260831015028 78 0 0.0 0.0 0.00 0.00 0.00 86 1018.4
20260831014557 78 0 0.0 0.0 0.00 0.00 0.00 86 1018.4
20260831014029 78 0 0.0 0.0 0.00 0.00 0.00 85 1018.3
20260831013532 78 0 0.0 0.0 0.00 0.00 0.00 84 1018.2
20260831013050 78 0 0.0 0.0 0.00 0.00 0.00 84 1018.2
20260831012529 79 0 0.0 0.0 0.00 0.00 0.00 83 1018.1
20260831012030 79 0 0.0 0.0 0.00 0.00 0.00 83 1018.1
20260831011554 79 0 0.0 0.0 0.00 0.00 0.00 82 1018.0
20260831011028 80 0 0.0 0.0 0.00 0.00 0.00 82 1018.0
20260831010531 80 0 0.0 0.0 0.00 0.00 0.00 80 1018.0
20260831010055 81 0 0.0 0.0 0.00 0.00 0.00 80 1018.0
20260831005530 81 0 0.0 0.0 0.00 0.00 0.00 80 1017.9